Find Starlink 35393

NORAD ID: 65827 Int'l Des: 2025-221 Owner: SPXS Country: US Constellation: starlink operational
LEOCIRCULAR

現在のビュー

3D地球を読み込み中...

About Starlink 35393

Starlink 35393 (NORAD 65827) is a starlink constellation satellite (v2 mini) launched Sep 29, 2025 by SPXS of US. It operates in LEO, CIRCULAR orbit with a mass of 575.00 kg.

次回通過

Passes for default location (London). Set your location on the main map for personalized predictions.

高度履歴

Loading altitude history...

軌道要素

1 65827U 25221E 26262.49998000 .00019855 00000-0 59723-3 0 9994
2 65827 53.1554 264.0740 0000820 79.6345 280.4750 15.34398888 55812
Epoch: Sep 19, 2026 • Age: 30 hours

現在のステータス

高度 463.8 km
遠地点 / 近地点 N/A
速度 7.64 km/s
衛星直下点 -2.70°S, 8.64°W
打ち上げ日 Sep 29, 2025
運用期間 0.9 years
タイプ internet

技術仕様

分類 Payload
質量 575.00 kg
乾燥質量 530.00 kg
長さ 0.30 m
スパン 29.00 m
形状 ? Box + pan
製造者 SPXS
バスタイプ Starlink V2MO
フェーズステータス In Orbit
所有者/国 SPXS/US

Most Searched